[[{"header":{"parameterUnit":"m.s-1","parameterCategory":1,"la1":30.2991,"la2":30.254,"lo1":-89.0895,"lo2":-89.0444,"dy":0.0017,"dx":0.0017,"nx":28,"ny":28,"refTime":"2023-09-29T21:00:00:Z","depth":0,"parameterNumber":2,"parameterNumberName":"U-component_of_WINDS"},"data":[0,0,0,0,0,0,0,0,0,0,0,0,0,0,0,0,0,0,0,0,0,0,0,0,0,0,0,0,0,0,0,0,0,0,0,0,0,0,0,0,0,0,0,0,0,0,0,0,0,0,0,0,0,0,0,0,0,0,-4.8214,-4.8214,0,-4.8224,-4.8224,-4.8224,-4.8157,-4.8155,-4.8153,-4.8151,-4.8161,-4.8163,-4.8165,0,0,0,0,0,0,0,0,0,0,0,0,0,-4.8137,-4.8139,-4.8214,-4.8214,-4.8214,-4.8224,-4.8224,-4.8224,-4.8157,-4.8155,-4.8152,-4.815,-4.816,-4.8163,-4.8165,0,0,0,0,0,0,0,0,0,0,0,0,0,-4.8161,-4.8139,-4.8214,-4.8182,-4.8179,-4.8224,-4.8224,-4.8224,-4.8158,-4.8155,-4.8152,-4.8149,-4.8159,-4.8162,-4.8165,-4.8241,0,0,-4.8175,-4.8176,0,0,0,0,0,0,0,0,-4.816,-4.8164,-4.8186,-4.8184,-4.8181,-4.8186,-4.82,-4.823,-4.8158,-4.8166,-4.8151,-4.8148,-4.8172,-4.8173,-4.8182,-4.8242,-4.8242,-4.8175,-4.8177,-4.8178,-4.8179,0,0,0,0,0,0,0,-4.8158,-4.8163,-4.8218,-4.8187,-4.8184,-4.8167,-4.8167,-4.8206,-4.8184,-4.8165,-4.816,-4.8162,-4.817,-4.8179,-4.8181,-4.8242,-4.8175,-4.8178,-4.818,-4.8181,-4.8369,-4.8372,0,0,0,0,0,0,-4.8161,-4.8162,-4.8217,-4.8218,-4.8163,-4.8171,-4.8171,-4.8187,-4.8184,-4.8181,-4.8165,-4.8159,-4.8175,-4.8178,-4.8181,-4.8272,-4.8178,-4.8181,-4.8183,-4.8365,-4.8369,-4.8373,0,0,0,0,0,0,-4.8159,-4.8166,-4.8217,-4.8189,-4.8194,-4.8175,-4.8194,-4.8189,-4.8198,-4.8184,-4.818,-4.8178,-4.8173,-4.8177,-4.8228,-4.8272,-4.8182,-4.8185,-4.8362,-4.8367,-4.8371,-4.8454,0,0,0,0,0,0,-4.8157,-4.8166,-4.8195,-4.819,-4.8196,-4.8263,-4.8197,-4.8191,-4.8204,-4.8197,-4.8195,-4.8192,-4.8171,-4.8224,-4.8231,-4.8274,-4.8188,-4.8358,-4.8364,-4.837,-4.8447,-4.8461,-4.8473,0,0,0,0,0,-4.8155,-4.8217,-4.8196,-4.8203,-4.8231,-4.8266,-4.8269,-4.8244,-4.8208,-4.8236,-4.8227,-4.8192,-4.8266,-4.8229,-4.8237,-4.8282,-4.8355,-4.8362,-4.8369,-4.8442,-4.8458,-4.8472,0,0,0,0,0,0,-4.8226,-4.8215,-4.8193,-4.8255,-4.8262,-4.8254,-4.829,-4.8262,-4.8279,-4.8271,-4.8239,-4.8239,-4.8296,-4.8293,-4.8253,-4.8357,-4.8304,-4.8313,-4.8357,-4.8372,-4.8385,-4.8385,-4.819,0,0,0,0,0,-4.8249,-4.8278,-4.8267,-4.8323,-4.8328,-4.8309,-4.8323,-4.8303,-4.8308,-4.8311,-4.8305,-4.8313,-4.8337,-4.8354,-4.8376,-4.8446,-4.8446,-4.8481,-4.8494,-4.8504,-4.8513,-4.8553,-4.8569,-4.8396,-4.8396,-4.8396,0,0,-4.8297,-4.8294,-4.8315,-4.8338,-4.8341,-4.8373,-4.8311,-4.8347,-4.837,-4.8316,-4.8365,-4.8361,-4.8367,-4.8428,-4.8455,-4.8428,-4.8561,-4.8514,-4.8522,-4.8525,-4.8562,-4.8578,-4.8593,-4.8401,-4.84,-4.8399,0,0,-4.84,-4.8401,-4.8449,-4.8454,-4.846,-4.8447,-4.8458,-4.8455,-4.8452,-4.8499,-4.846,-4.8488,-4.853,-4.8537,-4.8546,-4.8655,-4.8624,-4.8663,-4.873,-4.8769,-4.8783,-4.8795,-4.8836,-4.8851,-4.8671,-4.8671,-4.8672,0,-4.8459,-4.8505,-4.8477,-4.8516,-4.8528,-4.8481,-4.8531,-4.8536,-4.8549,-4.8559,-4.8528,-4.8583,-4.8583,-4.8648,-4.8675,-4.8682,-4.8696,-4.8664,-4.8783,-4.8795,-4.8806,-4.8845,-4.886,-4.8676,-4.8676,-4.8675,-4.8675,0,-4.8578,-4.8611,-4.8649,-4.8664,-4.868,-4.8724,-4.8703,-4.8723,-4.8702,-4.8693,-4.8744,-4.8742,-4.8765,-4.8778,-4.8757,-4.884,-4.8823,-4.8789,-4.8735,-4.8828,-4.8864,-4.8879,-4.8683,-4.8682,-4.868,-4.8679,0,0,-4.8726,-4.8727,-4.8741,-4.8749,-4.8753,-4.8778,-4.882,-4.8843,-4.8862,-4.8872,-4.8908,-4.8947,-4.8916,-4.8926,-4.8905,-4.894,-4.903,-4.8901,-4.8901,-4.8927,-4.9124,-4.9152,-4.9169,-4.9009,-4.9011,-4.9013,-4.9124,0,-4.883,-4.8903,-4.888,-4.8954,-4.8985,-4.8942,-4.898,-4.8987,-4.898,-4.9005,-4.8997,-4.9026,-4.8981,-4.8987,-4.9019,-4.9012,-4.9069,-4.9003,-4.9044,-4.9045,-4.9046,-4.9188,-4.9217,-4.9321,-4.9138,-4.914,-4.9142,0,-4.896,-4.8977,-4.9055,-4.9057,-4.9069,-4.9103,-4.9123,-4.9148,-4.9156,-4.9148,-4.9161,-4.9134,-4.9177,-4.9123,-4.9183,-4.9139,-4.9154,-4.9153,-4.9156,-4.9161,-4.9101,-4.9198,-4.9354,-4.9371,-4.9164,-4.9162,-4.916,0,-4.9064,-4.9106,-4.9159,-4.9167,-4.9169,-4.9194,-4.9196,-4.9201,-4.9217,-4.9235,-4.9245,-4.9267,-4.928,-4.9298,-4.9278,-4.924,-4.9342,-4.9285,-4.9339,-4.9339,-4.9363,-4.9362,-4.9526,-4.9369,-4.9369,-4.9369,-4.9369,0,-4.9182,-4.9233,-4.9207,-4.9239,-4.9295,-4.9268,-4.9324,-4.9321,-4.9326,-4.9358,-4.9321,-4.9352,-4.9324,-4.9352,-4.9337,-4.9391,-4.9396,-4.9392,-4.9388,-4.9397,-4.9398,-4.9408,-4.9401,-4.9373,-4.9372,-4.9371,-4.9371,0,-4.9308,-4.9293,-4.9348,-4.9346,-4.9347,-4.9388,-4.9387,-4.9418,-4.9408,-4.945,-4.9458,-4.9443,-4.9476,-4.9458,-4.949,-4.948,-4.9551,-4.9535,-4.9548,-4.9545,-4.9601,-4.9597,-4.9778,-4.9801,-4.9628,-4.9629,-4.9631,0,-4.9386,-4.9424,-4.9427,-4.9447,-4.9452,-4.9483,-4.95,-4.9475,-4.9494,-4.9507,-4.9537,-4.9566,-4.9588,-4.9642,-4.9635,-4.966,-4.9647,-4.9708,-4.965,-4.9659,-4.9651,-4.965,-4.9655,-4.9721,-4.9723,-4.9724,-4.9726,0,-4.9528,-4.9519,-4.9544,-4.9568,-4.959,-4.9607,-4.9621,-4.9639,-4.9614,-4.9638,-4.9671,-4.9688,-4.9723,-4.9753,-4.9776,-4.9778,-4.9749,-4.9744,-4.9758,-4.9769,-4.9776,-4.9776,-4.9583,-4.974,-4.9739,-4.9738,-4.9737,-4.9736,-4.9634,-4.9666,-4.9675,-4.9705,-4.9714,-4.9728,-4.9758,-4.9753,-4.9781,-4.9807,-4.9791,-4.9831,-4.9839,-4.9867,-4.9873,-4.9904,-4.988,-4.99,-4.9905,-4.9911,-4.992,-4.977,-4.9908,-4.9908,-4.9907,-4.9907,-4.9906,0,-4.9775,-4.9779,-4.9807,-4.9829,-4.9854,-4.9824,-4.9839,-4.9862,-4.9898,-4.9908,-4.9932,-4.9971,-5.0001,-4.9996,-5.0024,-5.005,-5.0038,-5.0058,-5.0057,-5.0059,-4.9939,-4.9925,-5.0068,-5.0068,-5.0068,-5.0068,-5.0068,-5.0068,-4.9852,-4.9907,-4.99,-4.9959,-4.9962,-5.0001,-5.0013,-5.0027,-5.0036,-5.0082,-5.0107,-5.0104,-5.0109,-5.0137,-5.0164,-5.0162,-5.0175,-5.0201,-5.0195,-5.0083,-5.0067,-5.0052,-5.0039,-5.0203,-5.0204,-5.0312,-5.0313,-5.0314]},{"header":{"parameterUnit":"m.s-1","parameterCategory":1,"la1":30.2991,"la2":30.254,"lo1":-89.0895,"lo2":-89.0444,"dy":0.0017,"dx":0.0017,"nx":28,"ny":28,"refTime":"2023-09-29T21:00:00:Z","depth":0,"parameterNumber":3,"parameterNumberName":"V-component_of_WINDS"},"data":[0,0,0,0,0,0,0,0,0,0,0,0,0,0,0,0,0,0,0,0,0,0,0,0,0,0,0,0,0,0,0,0,0,0,0,0,0,0,0,0,0,0,0,0,0,0,0,0,0,0,0,0,0,0,0,0,0,0,-1.5816,-1.5815,0,-1.5809,-1.5809,-1.5809,-1.5759,-1.5758,-1.5757,-1.5755,-1.5751,-1.5752,-1.5753,0,0,0,0,0,0,0,0,0,0,0,0,0,-1.5785,-1.5786,-1.5816,-1.5815,-1.5815,-1.5809,-1.5809,-1.5809,-1.5759,-1.5758,-1.5756,-1.5755,-1.5751,-1.5752,-1.5753,0,0,0,0,0,0,0,0,0,0,0,0,0,-1.5791,-1.5786,-1.5816,-1.579,-1.5787,-1.5809,-1.5809,-1.5809,-1.576,-1.5758,-1.5756,-1.5754,-1.575,-1.5752,-1.5753,-1.5801,0,0,-1.5758,-1.5759,0,0,0,0,0,0,0,0,-1.579,-1.5792,-1.5794,-1.5792,-1.5789,-1.5783,-1.5797,-1.5806,-1.576,-1.577,-1.5755,-1.5753,-1.5763,-1.5764,-1.5767,-1.58,-1.58,-1.5758,-1.5759,-1.576,-1.576,0,0,0,0,0,0,0,-1.579,-1.5792,-1.5813,-1.5794,-1.5791,-1.5779,-1.5777,-1.5798,-1.5777,-1.5769,-1.5766,-1.5765,-1.5762,-1.5765,-1.5766,-1.58,-1.5758,-1.576,-1.5761,-1.5761,-1.5871,-1.5873,0,0,0,0,0,0,-1.5793,-1.5792,-1.5813,-1.5813,-1.5785,-1.5781,-1.5779,-1.5787,-1.5777,-1.5774,-1.5767,-1.5763,-1.5764,-1.5765,-1.5766,-1.582,-1.576,-1.5761,-1.5762,-1.5869,-1.5871,-1.5873,0,0,0,0,0,0,-1.5793,-1.5795,-1.5814,-1.5801,-1.5803,-1.5783,-1.5792,-1.5788,-1.5791,-1.5775,-1.5771,-1.5775,-1.5762,-1.5764,-1.5792,-1.5819,-1.5762,-1.5764,-1.5866,-1.5869,-1.5872,-1.5928,0,0,0,0,0,0,-1.5792,-1.5796,-1.5813,-1.5802,-1.5804,-1.584,-1.5794,-1.5789,-1.5794,-1.5789,-1.5781,-1.5778,-1.5761,-1.579,-1.5793,-1.582,-1.5765,-1.5864,-1.5868,-1.5871,-1.5924,-1.5933,-1.5941,0,0,0,0,0,-1.5791,-1.583,-1.5814,-1.5817,-1.5825,-1.5841,-1.5842,-1.5821,-1.5796,-1.5814,-1.5803,-1.5779,-1.5815,-1.5793,-1.5797,-1.5824,-1.5862,-1.5867,-1.5871,-1.592,-1.5931,-1.594,0,0,0,0,0,0,-1.5846,-1.5828,-1.5811,-1.5847,-1.5846,-1.5833,-1.5854,-1.5833,-1.5839,-1.5834,-1.5808,-1.5806,-1.5839,-1.5834,-1.581,-1.5869,-1.5834,-1.584,-1.5871,-1.5881,-1.5889,-1.589,-1.5766,0,0,0,0,0,-1.5862,-1.5876,-1.586,-1.5894,-1.5894,-1.5874,-1.5881,-1.5864,-1.5862,-1.5862,-1.5853,-1.5853,-1.5864,-1.5872,-1.5882,-1.5923,-1.592,-1.5944,-1.5952,-1.5959,-1.5964,-1.5985,-1.5995,-1.5888,-1.5888,-1.5888,0,0,-1.5896,-1.5888,-1.5899,-1.5905,-1.5902,-1.5917,-1.5874,-1.5893,-1.5904,-1.5865,-1.589,-1.5884,-1.5882,-1.5916,-1.5931,-1.5914,-1.5992,-1.5964,-1.597,-1.5971,-1.599,-1.6,-1.6009,-1.5891,-1.589,-1.589,0,0,-1.5966,-1.5962,-1.5989,-1.5986,-1.5982,-1.5968,-1.5975,-1.5964,-1.5958,-1.5984,-1.5954,-1.5967,-1.5987,-1.5986,-1.5989,-1.6056,-1.6034,-1.606,-1.6104,-1.6124,-1.6133,-1.614,-1.6164,-1.6173,-1.6065,-1.6065,-1.6065,0,-1.6009,-1.6031,-1.6006,-1.6026,-1.6029,-1.5992,-1.6019,-1.6019,-1.6018,-1.6021,-1.6001,-1.6025,-1.6021,-1.6054,-1.6071,-1.6074,-1.608,-1.6061,-1.6133,-1.614,-1.6147,-1.617,-1.6179,-1.6069,-1.6068,-1.6068,-1.6068,0,-1.6084,-1.6099,-1.6122,-1.6121,-1.6127,-1.615,-1.6129,-1.6137,-1.612,-1.6108,-1.6134,-1.6127,-1.6135,-1.6141,-1.6125,-1.6172,-1.6161,-1.6138,-1.6103,-1.6161,-1.6182,-1.619,-1.6073,-1.6072,-1.6071,-1.607,0,0,-1.619,-1.6173,-1.6182,-1.6181,-1.6172,-1.6184,-1.6206,-1.6212,-1.622,-1.622,-1.6238,-1.6255,-1.6232,-1.6235,-1.6218,-1.6236,-1.6289,-1.621,-1.6209,-1.6225,-1.6341,-1.6359,-1.637,-1.6274,-1.6275,-1.6277,-1.6341,0,-1.6257,-1.6293,-1.627,-1.6309,-1.6323,-1.6287,-1.6306,-1.6303,-1.6293,-1.6303,-1.6291,-1.6304,-1.6273,-1.6274,-1.629,-1.628,-1.6312,-1.6274,-1.629,-1.6291,-1.6293,-1.6381,-1.64,-1.6462,-1.6349,-1.6351,-1.6352,0,-1.6341,-1.6343,-1.6384,-1.6372,-1.6376,-1.6394,-1.6397,-1.6407,-1.6402,-1.6393,-1.6396,-1.6373,-1.6394,-1.6358,-1.6386,-1.6361,-1.6366,-1.6361,-1.6363,-1.6364,-1.6326,-1.6385,-1.6481,-1.649,-1.6364,-1.6363,-1.6362,0,-1.6414,-1.6428,-1.6453,-1.6453,-1.644,-1.6453,-1.6448,-1.6441,-1.6446,-1.6449,-1.6451,-1.6457,-1.646,-1.6465,-1.6445,-1.6421,-1.6475,-1.6438,-1.6468,-1.6469,-1.6482,-1.6482,-1.6581,-1.6485,-1.6485,-1.6484,-1.6484,0,-1.6492,-1.6518,-1.6486,-1.6502,-1.653,-1.6503,-1.6531,-1.6523,-1.6517,-1.6531,-1.6501,-1.6514,-1.6486,-1.6497,-1.6482,-1.6507,-1.6509,-1.6502,-1.6498,-1.6505,-1.6506,-1.6508,-1.6504,-1.6487,-1.6486,-1.6486,-1.6485,0,-1.6579,-1.6559,-1.6584,-1.6568,-1.6565,-1.6586,-1.6573,-1.6587,-1.6574,-1.6591,-1.6594,-1.6573,-1.6584,-1.6564,-1.6573,-1.6563,-1.6598,-1.6587,-1.6599,-1.6596,-1.6627,-1.6625,-1.6732,-1.6745,-1.664,-1.6641,-1.6642,0,-1.663,-1.6649,-1.6635,-1.6641,-1.6638,-1.6649,-1.6653,-1.6627,-1.6632,-1.6628,-1.6643,-1.6651,-1.6656,-1.6675,-1.6661,-1.6668,-1.6656,-1.6694,-1.6657,-1.6664,-1.6657,-1.6656,-1.6658,-1.6701,-1.6703,-1.6704,-1.6705,0,-1.6723,-1.6712,-1.6718,-1.6721,-1.6727,-1.6728,-1.6727,-1.6734,-1.6706,-1.6714,-1.6724,-1.6728,-1.6736,-1.6745,-1.6747,-1.6743,-1.6719,-1.6716,-1.6723,-1.6731,-1.6738,-1.6735,-1.662,-1.6714,-1.6713,-1.6712,-1.6712,-1.6711,-1.6794,-1.6809,-1.6801,-1.6809,-1.6805,-1.6805,-1.6817,-1.6804,-1.6812,-1.6816,-1.68,-1.6814,-1.6808,-1.6809,-1.6806,-1.6817,-1.68,-1.6811,-1.6814,-1.6817,-1.6822,-1.6735,-1.6817,-1.6817,-1.6817,-1.6816,-1.6816,0,-1.6886,-1.6878,-1.6886,-1.6885,-1.6891,-1.6867,-1.6864,-1.6871,-1.6883,-1.6879,-1.6884,-1.6896,-1.6904,-1.689,-1.6895,-1.6906,-1.6896,-1.6909,-1.6908,-1.6907,-1.6836,-1.6829,-1.6917,-1.6917,-1.6917,-1.6917,-1.6917,-1.6917,-1.6934,-1.6958,-1.6945,-1.6966,-1.6958,-1.6971,-1.6971,-1.6971,-1.6967,-1.6981,-1.6987,-1.6977,-1.6969,-1.6973,-1.6979,-1.6975,-1.6979,-1.6996,-1.6988,-1.6922,-1.6912,-1.6903,-1.6896,-1.6996,-1.6997,-1.7057,-1.7058,-1.7058]}]]